Regional Weather Roundup
Issued by NWS Sioux Falls, SD

Home | Current Version | Previous Version | Text Only | Print | Product List | Glossary On
Versions: 1 2 3 4 5 6 7 8 9 10 11 12 13 14 15 16 17 18 19 20 21 22 23 24 25 26 27 28 29 30 31 32 33 34 35 36 37 38 39 40 41 42 43 44 45 46 47 48 49 50
716
ASUS43 KFSD 040210
RWRFSD

WEATHER ROUNDUP FOR SE SOUTH DAKOTA/SW MINNESOTA/NW IOWA
NATIONAL WEATHER SERVICE SIOUX FALLS SD
900 PM CDT TUE MAY 03 2016

NOTE: "FAIR" INDICATES FEW OR NO CLOUDS BELOW 12,000 FEET WITH NO
SIGNIFICANT WEATHER AND OR OBSTRUCTIONS TO VISIBILITY.


SDZ038>040-050-052>070-040300-
SOUTHEAST SOUTH DAKOTA

CITY           SKY/WX    TMP DP  RH WIND       PRES   REMARKS
BROOKINGS      CLEAR     58  30  34 N10       29.87R
CHAMBERLAIN    CLEAR     66  44  45 N8        29.94R
HURON          CLEAR     62  29  28 N13       29.91R
MADISON        FAIR      59  32  36 N17       29.88R
MITCHELL       CLEAR     63  37  38 N14       29.90R
SIOUX FALLS    CLEAR     63  33  32 N16G22    29.85R
WINNER         FAIR      62  44  51 NW6       29.96R
YANKTON        PTCLDY    64  45  48 W15       29.85R
$$

MNZ071-072-080-081-089-090-097-098-040300-
SOUTHWEST MINNESOTA

CITY           SKY/WX    TMP DP  RH WIND       PRES   REMARKS
FAIRMONT       CLEAR     63  18  17 NW22G28   29.75R
JACKSON        CLEAR     61  27  27 NW17G29   29.80R
LUVERNE        CLEAR     61  28  29 N12G18    29.85R
MARSHALL       CLEAR     62  29  28 N18G25    29.84R
MONTEVIDEO     CLEAR     61  28  29 N14G23    29.85R
PIPESTONE      CLEAR     61  23  23 N10G20    29.86R
REDWOOD FALLS  CLEAR     63  23  21 N17G26    29.79R
TRACY          CLEAR     62  31  31 N17G25    29.84R
WINDOM         CLEAR     61  27  27 NW18      29.80R
WORTHINGTON    CLEAR     58  35  42 N17       29.83R
$$

IAZ001>003-012>014-020>022-031-032-NEZ013-014-SDZ071-040300-
NORTHWEST IOWA

CITY           SKY/WX    TMP DP  RH WIND       PRES   REMARKS
CHEROKEE       PTCLDY    61  47  60 W12       29.80S
DENISON        CLEAR     61  45  55 W8        29.82F
ESTHERVILLE    CLEAR     60  33  36 NW18      29.77R
LE MARS        MOCLDY    63  46  55 W7        29.82S
ORANGE CITY    PTCLDY    63  48  59 NW9G25    29.83R
SHELDON        CLEAR     61  37  41 N12G18    29.81R
SIOUX CITY     CLEAR     60  47  61 W9        29.83F
SPENCER        MOCLDY    62  37  39 NW10      29.80R
STORM LAKE     PTCLDY    61  46  59 W13       29.80S
$$

ABBREVIATIONS USED IN REMARKS
   TC - TEMPERATURE IN CELSIUS
  WCI - WIND CHILL INDEX
   HX - HEAT INDEX
  VSB - VISIBILITY





USA.gov is the U.S. government's official web portal to all federal, state and local government web resources and services.